CW0318 Weather Reports


time (UTC)temp
F
wind
direction
speed
knots
gust
knots
rain 1hr
in
rain 24hr
in
rain mn
in
humidity
%
barometer
mb
20260906193231 103 132 0.0 0.9 0.00 0.00 0.00 37 1009.9
20260906192231 103 163 0.0 3.5 0.00 0.00 0.00 37 1010.1
20260906191230 102 165 1.7 3.5 0.00 0.00 0.00 37 1010.4
20260906190230 102 126 0.0 0.9 0.00 0.00 0.00 37 1010.5
20260906185230 103 250 1.7 2.6 0.00 0.00 0.00 37 1010.6
20260906184251 103 183 0.9 2.6 0.00 0.00 0.00 37 1010.8
20260906183230 103 360 0.0 1.7 0.00 0.00 0.00 36 1010.8
20260906182230 102 212 0.0 4.3 0.00 0.00 0.00 39 1011.1
20260906181230 102 145 2.6 4.3 0.00 0.00 0.00 39 1011.2
20260906180250 101 325 1.7 1.7 0.00 0.00 0.00 40 1011.5
20260906175230 100 153 1.7 4.3 0.00 0.00 0.00 41 1011.6
20260906174229 100 206 0.0 2.6 0.00 0.00 0.00 41 1011.7
20260906173229 100 237 0.9 2.6 0.00 0.00 0.00 40 1011.9
20260906172249 100 257 1.7 2.6 0.00 0.00 0.00 39 1012.0
20260906171229 101 236 0.0 0.0 0.00 0.00 0.00 41 1012.1
20260906170229 101 148 0.0 0.0 0.00 0.00 0.00 39 1012.3
20260906165229 101 196 0.0 0.0 0.00 0.00 0.00 42 1012.6
20260906164228 100 163 0.0 0.0 0.00 0.00 0.00 42 1012.6
20260906163229 98 184 0.0 0.0 0.00 0.00 0.00 44 1012.5
20260906162228 98 257 0.0 0.0 0.00 0.00 0.00 45 1012.5
20260906161228 98 229 0.0 0.0 0.00 0.00 0.00 44 1012.5
20260906160228 98 239 0.0 0.0 0.00 0.00 0.00 44 1012.6
20260906155228 97 166 0.0 0.0 0.00 0.00 0.00 46 1012.8
20260906154228 96 247 0.0 0.0 0.00 0.00 0.00 48 1012.8
20260906153228 95 242 0.0 0.0 0.00 0.00 0.00 50 1012.6
20260906152228 93 236 0.0 1.7 0.00 0.00 0.00 55 1012.7
20260906151227 93 248 0.0 1.7 0.00 0.00 0.00 54 1012.7
20260906150228 92 244 0.9 0.9 0.00 0.00 0.00 54 1012.6
20260906145227 90 244 0.0 1.7 0.00 0.00 0.00 56 1012.5
20260906144227 89 265 0.0 1.7 0.00 0.00 0.00 60 1012.5
20260906143227 88 265 0.9 0.9 0.00 0.00 0.00 61 1012.5
20260906142227 88 255 0.0 0.0 0.00 0.00 0.00 64 1012.4
20260906141227 87 255 0.0 0.0 0.00 0.00 0.00 62 1012.4
20260906140306 86 255 0.0 0.0 0.00 0.00 0.00 63 1012.4
20260906135226 86 185 0.0 1.7 0.00 0.00 0.00 67 1012.1
20260906134226 85 185 0.0 1.7 0.00 0.00 0.00 67 1012.2
20260906133226 84 248 0.0 1.7 0.00 0.00 0.00 68 1012.2
20260906132226 83 196 0.0 2.6 0.00 0.00 0.00 68 1012.3
20260906131306 82 174 0.0 2.6 0.00 0.00 0.00 69 1012.2
20260906130226 81 199 0.0 0.9 0.00 0.00 0.00 71 1012.0
20260906125225 80 180 0.0 0.9 0.00 0.00 0.00 72 1011.8
20260906124245 79 171 0.0 0.9 0.00 0.00 0.00 74 1011.8
20260906123225 79 214 0.0 0.0 0.00 0.00 0.00 75 1011.6
20260906122225 78 215 0.0 0.0 0.00 0.00 0.00 75 1011.7
20260906121225 78 217 0.0 0.0 0.00 0.00 0.00 74 1011.6
20260906120225 78 217 0.0 0.0 0.00 0.00 0.00 75 1011.4
20260906115225 79 217 0.0 0.0 0.00 0.00 0.00 74 1011.2
20260906114225 79 217 0.0 0.0 0.00 0.00 0.00 72 1011.3
20260906113224 79 217 0.0 0.0 0.00 0.00 0.00 72 1011.3
20260906112224 79 217 0.0 0.0 0.00 0.00 0.00 72 1011.0
20260906111224 79 217 0.0 0.0 0.00 0.00 0.00 73 1011.0
20260906110224 79 217 0.0 0.0 0.00 0.00 0.00 72 1010.8
20260906105224 79 217 0.0 0.0 0.00 0.00 0.00 73 1010.8
20260906104224 80 217 0.0 0.0 0.00 0.00 0.00 72 1010.7
20260906103224 80 217 0.0 0.0 0.00 0.00 0.00 71 1010.8
20260906102306 80 217 0.0 0.0 0.00 0.00 0.00 71 1010.9
20260906101223 81 217 0.0 0.0 0.00 0.00 0.00 70 1010.9
20260906100223 81 217 0.0 0.0 0.00 0.00 0.00 70 1011.0
20260906095223 81 217 0.0 0.0 0.00 0.00 0.00 68 1011.0
20260906094303 82 217 0.0 0.0 0.00 0.00 0.00 67 1010.8
20260906093223 82 217 0.0 0.0 0.00 0.00 0.00 66 1010.8
20260906092223 82 217 0.0 0.0 0.00 0.00 0.00 65 1010.7
20260906091222 82 217 0.0 0.0 0.00 0.00 0.00 65 1010.8
20260906090222 82 217 0.0 0.0 0.00 0.00 0.00 64 1010.5
20260906085222 82 217 0.0 0.9 0.00 0.00 0.00 64 1010.5
20260906084222 83 217 0.0 0.0 0.00 0.00 0.00 63 1010.4
20260906083222 83 217 0.0 0.0 0.00 0.00 0.00 63 1010.4
20260906082222 83 217 0.0 0.9 0.00 0.00 0.00 62 1010.3
20260906081222 83 217 0.0 0.9 0.00 0.00 0.00 61 1010.3
20260906080222 83 217 0.9 0.9 0.00 0.00 0.00 61 1010.2
20260906075221 84 217 0.0 0.0 0.00 0.00 0.00 61 1010.1
20260906074221 84 217 0.0 0.0 0.00 0.00 0.00 62 1010.0
20260906073221 84 217 0.0 0.0 0.00 0.00 0.00 62 1010.1
20260906072241 84 217 0.0 0.0 0.00 0.00 0.00 60 1010.2
20260906071221 84 217 0.0 0.0 0.00 0.00 0.00 61 1010.5
20260906070221 84 217 0.0 0.0 0.00 0.00 0.00 60 1010.4
20260906065221 84 217 0.0 0.0 0.00 0.00 0.00 60 1010.3
20260906064221 84 217 0.0 0.0 0.00 0.00 0.00 60 1010.2
20260906063221 85 217 0.0 0.0 0.00 0.00 0.00 59 1010.4
20260906062220 85 217 0.0 0.0 0.00 0.00 0.00 59 1010.4
20260906061220 85 217 0.0 0.0 0.00 0.00 0.00 60 1010.4
20260906060220 85 217 0.0 0.0 0.00 0.00 0.00 59 1010.5
20260906055220 85 217 0.0 0.0 0.00 0.00 0.00 58 1010.5
20260906054220 86 217 0.0 0.0 0.00 0.00 0.00 57 1010.4
20260906053220 86 217 0.0 0.0 0.00 0.00 0.00 57 1010.5
20260906052220 86 217 0.0 0.0 0.00 0.00 0.00 57 1010.4
20260906051239 86 217 0.0 0.0 0.00 0.00 0.00 57 1010.3
20260906050219 86 217 0.0 0.0 0.00 0.00 0.00 58 1010.2
20260906045219 87 88 0.0 0.0 0.00 0.00 0.00 57 1010.3
20260906044219 87 88 0.0 0.0 0.00 0.00 0.00 56 1010.3
20260906043239 87 88 0.0 0.0 0.00 0.00 0.00 54 1010.2
20260906042219 88 88 0.0 0.0 0.00 0.00 0.00 55 1010.0
20260906041218 88 88 0.0 0.0 0.00 0.00 0.00 54 1010.1
20260906040218 88 88 0.0 0.0 0.00 0.00 0.00 54 1010.1
20260906035218 88 88 0.0 0.0 0.00 0.00 0.00 55 1010.3
20260906034218 88 88 0.0 0.0 0.00 0.00 0.00 55 1010.1
20260906033218 88 88 0.0 0.0 0.00 0.00 0.00 55 1009.9
20260906032218 88 88 0.0 0.9 0.00 0.00 0.00 56 1009.9
20260906031218 89 88 0.0 0.9 0.00 0.00 0.00 53 1010.0
20260906030218 89 88 0.0 0.0 0.00 0.00 0.00 52 1010.1
20260906025218 89 88 0.0 0.0 0.00 0.00 0.00 52 1010.0
20260906024237 90 88 0.0 0.0 0.00 0.00 0.00 52 1009.8
20260906023217 90 88 0.0 0.0 0.00 0.00 0.00 50 1009.6
20260906022217 90 88 0.0 0.0 0.00 0.00 0.00 50 1009.6
20260906021237 91 88 0.0 0.0 0.00 0.00 0.00 50 1009.3
20260906020217 91 88 0.0 0.0 0.00 0.00 0.00 49 1009.1
20260906015217 91 88 0.0 0.0 0.00 0.00 0.00 49 1009.2
20260906014216 92 88 0.0 0.0 0.00 0.00 0.00 48 1009.1
20260906013236 92 88 0.0 0.0 0.00 0.00 0.00 47 1009.0
20260906012216 93 88 0.0 0.9 0.00 0.00 0.00 45 1009.0
20260906011256 94 88 0.0 0.0 0.00 0.00 0.00 43 1008.8
20260906010216 95 88 0.0 0.0 0.00 0.00 0.00 42 1008.8
20260906005216 96 88 0.0 0.0 0.00 0.00 0.00 41 1008.8
20260906004236 96 88 0.0 0.0 0.00 0.00 0.00 39 1008.7
20260906003215 97 88 0.0 0.0 0.00 0.00 0.00 39 1008.7
20260906002215 97 88 0.0 2.6 0.00 0.00 0.00 38 1008.6
20260906001235 98 70 0.9 2.6 0.00 0.00 0.00 38 1008.6
20260906000215 98 90 0.0 0.9 0.00 0.00 0.00 37 1008.6
20260905235215 98 82 1.7 2.6 0.00 0.00 0.00 38 1008.5
20260905234215 99 92 1.7 2.6 0.00 0.00 0.00 38 1008.5
20260905233215 99 84 1.7 1.7 0.00 0.00 0.00 37 1008.5
20260905232215 100 255 0.0 2.6 0.00 0.00 0.00 37 1008.5
20260905231214 100 255 0.0 2.6 0.00 0.00 0.00 37 1008.5
20260905230214 100 215 1.7 1.7 0.00 0.00 0.00 37 1008.5
20260905225214 100 165 0.9 2.6 0.00 0.00 0.00 37 1008.6
20260905224214 100 172 0.0 2.6 0.00 0.00 0.00 37 1008.5
20260905223214 100 124 0.0 1.7 0.00 0.00 0.00 37 1008.7
20260905222214 100 252 0.9 4.3 0.00 0.00 0.00 37 1008.7
20260905221214 100 44 0.0 4.3 0.00 0.00 0.00 37 1008.7
20260905220214 100 135 0.9 0.9 0.00 0.00 0.00 38 1008.9
20260905215233 100 65 2.6 5.2 0.00 0.00 0.00 36 1008.9
20260905214214 100 178 0.0 2.6 0.00 0.00 0.00 37 1009.0
20260905213213 100 92 1.7 1.7 0.00 0.00 0.00 38 1009.1
20260905212213 100 83 0.9 5.2 0.00 0.00 0.00 38 1009.3
20260905211213 100 110 0.9 2.6 0.00 0.00 0.00 39 1009.3
20260905210213 100 258 0.0 0.0 0.00 0.00 0.00 38 1009.4
20260905205213 99 148 0.0 6.1 0.00 0.00 0.00 39 1009.8
20260905204213 100 88 3.5 6.1 0.00 0.00 0.00 40 1010.0
20260905203212 99 258 0.0 0.9 0.00 0.00 0.00 40 1010.0
20260905202212 99 288 0.0 2.6 0.00 0.00 0.00 39 1010.0
20260905201212 100 150 0.0 2.6 0.00 0.00 0.00 39 1010.5
20260905200212 100 129 1.7 2.6 0.00 0.00 0.00 39 1010.7
20260905195232 100 184 0.0 4.3 0.00 0.00 0.00 40 1010.7
20260905194212 100 266 1.7 4.3 0.00 0.00 0.00 40 1010.9